Simultaneous Nadir Overpasses (SNOs) Predictions

Prediction of SNOs near US between AQUA and NPP Satellite Orbit:

Table of predicted SNOs near US for the next 10.0 days since TLE Epoch: 8/14/2021
Index Date (AQUA) Time (AQUA) AQUA Lat,Lon Date (NPP) Time (NPP) NPP Lat,Lon Distance(km) Time Diff (sec)
1 08/15/2021 09:23:22 23.90,-113.33 08/15/2021 09:16:06 24.01,-113.85 54.13 436
2 08/18/2021 06:30:15 46.36, -65.04 08/18/2021 06:31:02 46.75, -67.13 165.64 47
3 08/18/2021 08:08:08 49.92, -88.35 08/18/2021 08:11:28 50.43, -90.93 192.56 200
4 08/18/2021 09:47:00 49.92,-113.07 08/18/2021 09:52:55 50.54,-116.25 236.95 355
5 08/20/2021 19:06:17 50.00, -92.56 08/20/2021 19:01:46 49.64, -94.53 147.31 271
6 08/20/2021 20:45:10 49.99,-117.27 08/20/2021 20:43:14 49.53,-119.86 192.62 116
7 08/23/2021 08:34:58 20.00,-101.88 08/23/2021 08:26:38 19.73,-102.24 48.01 500
8 08/23/2021 10:11:25 28.80,-124.46 08/23/2021 10:05:31 28.92,-125.26 78.29 354
